Location: Jackson Park
(37.2862°N, 79.9123°W)
Time: 13:39:08
(UTC+00:00)

Vanguard 2 - Pass Details

Date: 19 May 2026
Orbit: 553 x 2894 km, 32.9° (Epoch: 6 June)

Event Time Altitude Azimuth Distance (km) Brightness Sun altitude
Rises 13:25:53 0° 279° (W) 6,380 11.7 37.4°
Reaches altitude 10° 13:32:24 10° 264° (W) 4,987 11.3 38.7°
Maximum altitude 13:40:10 18° 229° (SW) 3,790 10.9 40.2°
Drops below altitude 10° 13:46:21 10° 192° (SSW) 3,793 11.1 41.4°
Sets 13:50:20 0° 173° (S) 4,356 11.5 42.2°
